Manitowoc, WI

8:14 AM CDT on October 01, 2016 (GMT -0500)
Manitowoc County

Weather History for KMTW - April, 2014

Change the Weather History Date:

Monday, April 28, 2014

  Actual Average Record
Temperature  
Mean Temperature 44 °F -  
Max Temperature 48 °F 57 °F 82 °F (1952)
Min Temperature 39 °F 38 °F 27 °F (1965)
Degree Days  
Heating Degree Days 22    
Moisture  
Dew Point 34 °F    
Average Humidity 70    
Maximum Humidity 89    
Minimum Humidity 56    
Precipitation  
Precipitation 0.42 in - - ()
Sea Level Pressure  
Sea Level Pressure 29.95 in    
Wind  
Wind Speed 12 mph (ENE)    
Max Wind Speed 15 mph    
Max Gust Speed 23 mph    
Visibility 10 miles    
Events Rain    
Averages and records for this station are not official NWS values.
T = Trace of Precipitation, MM = Missing Value Source: NWS Daily Summary

Daily Weather History Graph

Daily Weather History Graph

Search for Another Location

Airport or City:

Trip Planner

Search our weather history database for the weather conditions in past years. The results will help you decide how hot, cold, wet, or windy it might be!

Date:

Astronomy

Apr. 28, 2014 Rise Set
Actual Time 5:46 AM CDT 7:50 PM CDT
Civil Twilight 5:15 AM CDT 8:22 PM CDT
Nautical Twilight 4:36 AM CDT 9:01 PM CDT
Astronomical Twilight 3:54 AM CDT 9:43 PM CDT
Moon 5:26 AM CDT (4/28) 7:27 PM CDT (4/28)
Length of Visible Light 15h 07m
Length of Day
14h 04m
Waning Crescent, 0% of the Moon is Illuminated
Apr 28
Waning Crescent
Apr 29
New
May 6
First Quarter
May 14
Full
May 21
Last Quarter

Hourly Weather History & Observations

Time (CDT) Temp. Windchill Dew Point Humidity Pressure Visibility Wind Dir Wind Speed Gust Speed Precip Events Conditions
12:56 AM 44.1 °F 37.1 °F 30.0 °F 58% 30.06 in 10.0 mi East 15.0 mph - N/A   Clear
1:56 AM 44.1 °F 37.4 °F 30.9 °F 60% 30.06 in 10.0 mi East 13.8 mph - N/A   Overcast
2:56 AM 43.0 °F 36.4 °F 30.0 °F 60% 30.06 in 10.0 mi East 12.7 mph - N/A   Overcast
3:56 AM 43.0 °F 36.4 °F 30.0 °F 60% 30.04 in 10.0 mi East 12.7 mph - N/A   Overcast
4:56 AM 43.0 °F 36.8 °F 30.0 °F 60% 30.03 in 10.0 mi ENE 11.5 mph 18.4 mph N/A   Overcast
5:56 AM 43.0 °F 36.8 °F 30.0 °F 60% 30.01 in 10.0 mi East 11.5 mph 18.4 mph N/A   Overcast
6:56 AM 44.1 °F 38.6 °F 30.0 °F 58% 30.02 in 10.0 mi ENE 10.4 mph - N/A   Overcast
7:56 AM 43.0 °F 36.4 °F 30.9 °F 62% 30.00 in 10.0 mi ENE 12.7 mph 17.3 mph 0.00 in   Overcast
8:56 AM 44.1 °F 38.6 °F 32.0 °F 63% 30.01 in 10.0 mi ENE 10.4 mph - N/A   Overcast
9:56 AM 42.1 °F 35.7 °F 32.0 °F 67% 30.00 in 10.0 mi NE 11.5 mph 17.3 mph N/A   Overcast
10:56 AM 45.0 °F 38.9 °F 32.0 °F 60% 29.97 in 10.0 mi ENE 12.7 mph - 0.00 in   Overcast
11:56 AM 48.0 °F - 33.1 °F 56% 29.92 in 10.0 mi NE 10.4 mph 19.6 mph 0.00 in   Overcast
12:56 PM 48.0 °F - 33.1 °F 56% 29.93 in 10.0 mi ENE 10.4 mph - 0.00 in Rain Light Rain
1:56 PM 45.0 °F 40.6 °F 35.1 °F 68% 29.92 in 10.0 mi NE 8.1 mph - 0.00 in Rain Light Rain
2:56 PM 45.0 °F 39.7 °F 36.0 °F 71% 29.91 in 10.0 mi ENE 10.4 mph - 0.01 in Rain Light Rain
3:56 PM 44.1 °F 39.5 °F 37.0 °F 76% 29.91 in 10.0 mi NE 8.1 mph - 0.00 in Rain Light Rain
4:56 PM 43.0 °F 37.2 °F 37.0 °F 80% 29.88 in 6.0 mi ENE 10.4 mph - 0.08 in Rain Rain
5:56 PM 42.1 °F 35.2 °F 39.0 °F 89% 29.86 in 10.0 mi ENE 12.7 mph 18.4 mph 0.06 in   Overcast
6:56 PM 43.0 °F 37.2 °F 37.9 °F 82% 29.87 in 10.0 mi NE 10.4 mph - N/A   Overcast
7:56 PM 42.1 °F 37.1 °F 37.9 °F 85% 29.87 in 10.0 mi NE 8.1 mph - 0.00 in   Overcast
8:56 PM 42.1 °F 38.4 °F 37.0 °F 82% 29.87 in 10.0 mi NNE 5.8 mph - N/A   Overcast
9:56 PM 41.0 °F 34.7 °F 37.0 °F 86% 29.89 in 10.0 mi NE 10.4 mph - 0.02 in Rain Rain
10:56 PM 39.9 °F 32.1 °F 37.0 °F 89% 29.84 in 10.0 mi NE 13.8 mph 20.7 mph 0.24 in Rain Light Rain
11:56 PM 39.0 °F 30.6 °F 36.0 °F 89% 29.81 in 8.0 mi NE 15.0 mph 23.0 mph 0.01 in Rain Light Rain